TimeMDT,TemperatureF,Dew PointF,Humidity,Sea Level PressureIn,VisibilityMPH,Wind Direction,Wind SpeedMPH,Gust SpeedMPH,PrecipitationIn,Events,Conditions,WindDirDegrees,DateUTC
12:53 AM,66.9,46.0,47,29.90,10.0,SSW,8.1,-,N/A,,Clear,200,2013-09-07 06:53:00
1:53 AM,68.0,45.0,43,29.90,10.0,SSW,8.1,-,N/A,,Clear,210,2013-09-07 07:53:00
2:53 AM,68.0,45.0,43,29.88,10.0,WSW,5.8,-,N/A,,Clear,240,2013-09-07 08:53:00
3:53 AM,62.1,45.0,53,29.89,10.0,WSW,8.1,-,N/A,,Clear,250,2013-09-07 09:53:00
4:53 AM,59.0,44.1,58,29.90,10.0,WSW,8.1,-,N/A,,Clear,240,2013-09-07 10:53:00
5:53 AM,59.0,44.1,58,29.91,10.0,WNW,10.4,-,N/A,,Clear,290,2013-09-07 11:53:00
6:53 AM,57.9,45.0,62,29.94,10.0,WSW,6.9,-,N/A,,Clear,250,2013-09-07 12:53:00
7:53 AM,66.9,48.0,51,29.95,10.0,West,3.5,-,N/A,,Clear,270,2013-09-07 13:53:00
8:53 AM,79.0,51.1,38,29.93,10.0,WNW,5.8,-,N/A,,Clear,290,2013-09-07 14:53:00
9:53 AM,84.9,48.0,28,29.95,10.0,WSW,4.6,-,N/A,,Clear,250,2013-09-07 15:53:00
10:53 AM,91.9,46.9,21,29.94,10.0,South,5.8,-,N/A,,Clear,190,2013-09-07 16:53:00
11:53 AM,95.0,44.1,17,29.92,10.0,South,18.4,26.5,N/A,,Clear,190,2013-09-07 17:53:00
12:53 PM,96.1,43.0,16,29.91,10.0,SSW,17.3,24.2,N/A,,Clear,200,2013-09-07 18:53:00
1:53 PM,98.1,44.1,16,29.88,10.0,SSW,15.0,27.6,N/A,,Clear,210,2013-09-07 19:53:00
2:53 PM,97.0,43.0,16,29.86,10.0,South,11.5,24.2,N/A,,Clear,170,2013-09-07 20:53:00
3:53 PM,97.0,42.1,15,29.85,10.0,South,9.2,-,N/A,,Clear,190,2013-09-07 21:53:00
4:53 PM,97.0,43.0,16,29.85,10.0,South,15.0,-,N/A,,Clear,170,2013-09-07 22:53:00
5:53 PM,93.9,44.1,18,29.85,10.0,South,12.7,-,N/A,,Clear,170,2013-09-07 23:53:00
6:53 PM,86.0,46.0,25,29.88,10.0,South,8.1,-,N/A,,Clear,170,2013-09-08 00:53:00
7:53 PM,79.0,46.9,32,29.88,10.0,SSE,8.1,-,N/A,,Clear,150,2013-09-08 01:53:00
8:53 PM,78.1,46.9,33,29.87,10.0,SSE,10.4,-,N/A,,Clear,160,2013-09-08 02:53:00
9:53 PM,77.0,46.9,34,29.88,10.0,South,10.4,-,N/A,,Clear,180,2013-09-08 03:53:00
10:53 PM,72.0,48.0,43,29.88,10.0,South,9.2,-,N/A,,Clear,190,2013-09-08 04:53:00
11:53 PM,72.0,48.9,44,29.87,10.0,South,10.4,-,N/A,,Clear,190,2013-09-08 05:53:00